Location: ???? ?????
(30.0052°N, 31.2891°E)
Time: 18:28:04
(UTC+00:00)

ACS3 Solar Sail - Pass Details

Date: 28 September 2024
Orbit: 961 x 1035 km, 97.4° (Epoch: 08 October)

Event Time Altitude Azimuth Distance (km) Brightness Sun altitude
Exits shadow 19:46:30 12° 289° (WNW) 2,707 4.5 -50.6°
Drops below altitude 10° 19:47:26 10° 297° (WNW) 2,838 4.7 -50.8°
Sets 19:51:33 0° 323° (NW) 3,790 5.5 -51.5°
